Regional Weather Roundup
Issued by NWS

Home | Current Version | Previous Version | Text Only | Print | Product List | Glossary Off
Versions: 1 2 3 4 5 6 7 8 9 10 11 12 13 14 15 16 17 18 19 20 21 22 23 24 25 26 27

000
ASUS45 KSLC 281710
RWRUT

UTAH REGIONAL WEATHER ROUNDUP
NATIONAL WEATHER SERVICE SALT LAKE CITY UT
1100 AM MDT THU APR 28 2016

UTZ001>011-023>025-281800-

NORTHERN UTAH

CITY           SKY/WX    TMP DP  RH WIND       PRES   REMARKS
BRIGHAM CITY     N/A     51  30  44 E12G22    29.75R
HILL AFB       CLOUDY    43  33  69 E18       29.74S
LOGAN            N/A     51  31  46 SE15G22   29.76S
OGDEN          CLOUDY    48  33  56 E5        29.73R
PROVO AIRPORT  CLOUDY    48  41  76 NW12      29.71R
SALT LAKE CITY CLOUDY    50  38  63 NW7       29.72R
VERNAL         LGT RAIN  38  33  82 NE13      29.80R WCI  30
WENDOVER       CLOUDY    46  34  61 NE8       29.76R
HEBER CITY     MIX PCPN  41  34  75 N8        29.73S

$$

UTZ012>022-026-027-281800-

SOUTHERN/CENTRAL UTAH

CITY           SKY/WX    TMP DP  RH WIND       PRES   REMARKS
BLANDING         N/A     49  38  66 S9        29.81S
BRYCE CANYON   FOG       32  31  96 SE9       29.73R VSB 1   WCI  24
CEDAR CITY     PTSUNNY   45  37  73 W6        29.67R
DELTA            N/A     46  41  81 CALM      29.69R
HANKSVILLE     CLOUDY    41  37  87 NW3       29.77R
MILFORD        CLOUDY    45  39  79 N5        29.69R
MOAB/CYNLANDS  CLOUDY    46  41  82 W14       29.72R
PRICE          CLOUDY    42  37  82 CALM      29.74R
ST GEORGE      PTSUNNY   52  39  62 NW7       29.70R

$$

REGIONAL REPORTS     COLORADO/ARIZONA

CITY           SKY/WX    TMP DP  RH WIND       PRES   REMARKS
CRAIG, CO      LGT SNOW  34  32  92 E3        29.80S FOG
GRAND JUNCTION CLOUDY    47  41  80 W5        29.74F
RIFLE          CLOUDY    44  38  79 E6        29.79R
MONTROSE       CLOUDY    50  42  74 N7        29.76F
CORTEZ         PTSUNNY   56  22  26 S20G32    29.75S
PAGE, AZ       PTSUNNY   49  40  71 NW5       29.70R
GRAND CANYON   CLOUDY    42  30  62 W14G29    29.72R
KINGMAN        CLOUDY    48  42  80 VRB3      29.73R
FLAGSTAFF        N/A     43  25  49 SW18      29.73S

$$

REGIONAL REPORTS    NEVADA/IDAHO/WYOMING

CITY           SKY/WX    TMP DP  RH WIND       PRES   REMARKS
LAS VEGAS, NV  PTSUNNY   61  42  49 CALM      29.62S
ELY            CLOUDY    36  35  96 N12       29.73R WCI  28
ELKO             N/A     49  34  56 NE21G32   29.78R
POCATELLO, ID  MOSUNNY   51  32  48 NE15      29.81F
BURLEY           N/A     51  33  50 N7        29.81F
EVANSTON, WY   CLOUDY    33  26  75 E22G30    29.81R WCI  21
ROCK SPRINGS   CLOUDY    34  25  69 NE26G32   29.85S WCI  21
KEMMERER       CLOUDY    32  27  80 E18       29.85S WCI  20

$$




USA.gov is the U.S. government's official web portal to all federal, state and local government web resources and services.